Location: Hepcat Sky Observatory
(29.9800°N, 95.6500°W)
Time: 19:59:13
(UTC-05:00)

Cosmos 2366 rocket - Visible Passes

Search period start: 04 May 2016 00:00
Search period end: 14 May 2016 00:00
Orbit: 955 x 998 km, 82.9° (Epoch: 04 May)

Date Brightness Start Highest point End Pass type
(mag) Time Alt. Az. Time Alt. Az. Time Alt. Az.
04 May 6.0 20:54:14 10° NNW 20:59:23 29° W 21:04:31 10° SW visible
05 May 6.8 21:21:44 10° NW 21:24:39 14° W 21:27:34 10° WSW visible
07 May 5.9 20:25:36 10° NNW 20:31:01 34° W 20:36:26 10° SSW visible
08 May 6.7 20:52:39 10° NW 20:56:20 17° W 21:00:02 10° WSW visible
11 May 6.7 20:23:44 10° NW 20:27:59 20° W 20:32:15 10° SW visible
